Starlink 33551

operational
NORAD ID: 62110 Int'l Des: 2024-220 Owner: SPXS Country: US Constellation: starlink
LEOCIRCULAR

Über Starlink 33551

Beschreibung wird geladen...

Live-Position

3D-Globus wird geladen...

Nächste Überflüge

Höhenverlauf

Altitude vs Time

uPlot chart will show altitude changes over time

Zweizeiliger Elementsatz

1 62110U 24220Y 25258.99584610 .00022858 00000-0 83663-3 0 9998
2 62110 43.0040 112.1544 0002175 286.7601 73.3012 15.27617201 46475
Epoch: 15. Sept. 2025 • Age: 44 hours

Aktueller Status

Höhe 483.8 km
Geschwindigkeit 7.63 km/s
Subsatellitenpunkt -12.27°S, 155.05°E
Startdatum 25. Nov. 2024
Alter 0.8 years
Typ internet

Technische Details

Klassifizierung Payload
Masse 530.00 kg
Trockenmasse 500.00 kg
Gesamtmasse 530.00 kg
Länge 0.30 m
Durchmesser 4.10 m
Spannweite 29.00 m
Form Box + pan
Hersteller SPXS
Bus-Typ Starlink V2MO
Phasenstatus In Orbit
Besitzer/Staat SPXS/US

Große Konstellationen

Loading constellations...